Regional Weather Roundup
Issued by NWS

Home | Current Version | Previous Version | Graphics & Text | Print | Product List | Glossary On
Versions: 1 2 3 4 5 6 7 8 9 10 11 12 13 14 15 16 17 18 19 20 21 22 23 24 25 26 27 28 29 30 31 32 33 34 35 36 37 38 39 40 41 42 43 44 45 46 47 48 49 50
000
ASUS43 KDMX 230103
RWRIA

WEATHER ROUNDUP FOR IOWA
NATIONAL WEATHER SERVICE DES MOINES IA
800 PM CDT FRI JUL 22 2016

NOTE: "FAIR" INDICATES FEW OR NO CLOUDS BELOW 12,000 FEET WITH NO
SIGNIFICANT WEATHER AND/OR OBSTRUCTIONS TO VISIBILITY.

* - THESE STATIONS ARE NOT NWS STATIONS...THUS NOT UNDER NWS
QUALITY CONTROL.  THEY ALSO DO NOT REPORT WEATHER SUCH
AS PRECIPITATION OR FOG.

IAZ001>003-012>014-020>022-031>034-043>046-230200-
   NORTHWEST IOWA

CITY           SKY/WX    TMP DP  RH WIND       PRES   REMARKS
CARROLL *      CLEAR     86  81  84 SE3       29.94S HX 102
CHEROKEE *     PTCLDY    88  80  77 CALM      29.94S HX 103
DENISON *      CLOUDY    86  81  84 SE7       29.92R HX 102
LE MARS *      CLEAR     90  79  70 E5        29.93S HX 105
SHELDON *      PTCLDY    84  81  89 E9        29.94F HX  98
SIOUX CITY     CLEAR     91  79  67 E7        29.90F HX 107
SPENCER        MOCLDY    85  78  80 E10       29.96F HX  96
STORM LAKE *   CLEAR     86  81  84 SE5       29.96S HX 102
$$

IAZ055>058-069>071-079>083-090>094-230200-
   SOUTHWEST IOWA

CITY           SKY/WX    TMP DP  RH WIND       PRES   REMARKS
ATLANTIC *     PTCLDY    88  81  79 SE6       29.93F HX 105
CLARINDA *       N/A     88  81  79 MISG      29.94S HX 105
COUNCIL BLFS * MOCLDY    88  82  84 SE9       29.91F HX 108
CRESTON *      CLOUDY    84  81  89 SE6       29.97F HX  98
HARLAN  *      CLOUDY    86  81  84 SE6       29.96S HX 102
LAMONI         MOCLDY    84  78  82 SE8       29.97S HX  95
RED OAK *      PTCLDY    88  81  79 SE6       29.92S HX 105
SHENANDOAH *   MOCLDY    88  84  89 SE8       29.91S HX 112
$$

IAZ047>049-059>061-072>074-084-230200-
   CENTRAL IOWA

CITY           SKY/WX    TMP DP  RH WIND       PRES   REMARKS
AMES           CLEAR     86  81  85 SE8       29.95S HX 102
ANKENY *         N/A    N/A N/A N/A MISG        N/A
BOONE *        CLEAR     86  81  84 SE5       29.95S HX 102
CHARITON *       N/A    N/A N/A N/A MISG        N/A
DES MOINES     PTCLDY    88  78  72 SE7       29.94F HX 101
GRINNELL*      CLEAR     84  76  77 E3        29.98F HX  93
KNOXVILLE *    CLEAR     84  77  79 SE5       29.95S HX  94
MARSHALLTOWN   PTCLDY    83  79  88 SE7       29.96F HX  94
NEWTON *       CLEAR     84  81  89 SE6       29.96S HX  98
PELLA *        CLEAR     85  77  76 CALM      29.98R HX  96
PERRY *          N/A     87  83  88 SE3       29.94F HX 106
$$

IAZ004>006-015-016-023>025-035-036-230200-
   NORTH CENTRAL IOWA

CITY           SKY/WX    TMP DP  RH WIND       PRES   REMARKS
ALGONA *       CLEAR     86  79  79 E7        29.96F HX  99
ESTHERVILLE    CLEAR     84  80  88 E7        29.97F HX  97
FORT DODGE *   PTCLDY    86  81  84 E6        29.96S HX 102
MASON CITY     PTCLDY    84  78  82 SE7       29.98F HX  95
FOREST CITY *    N/A     82  77  83 CALM      29.97F HX  91
IOWA FALLS *     N/A     85  79  82 E5        29.97F HX  99
$$

IAZ007>011-017>019-026>030-037>042-050>054-066-230200-
   NORTHEAST IOWA

CITY           SKY/WX    TMP DP  RH WIND       PRES   REMARKS
CEDAR RAPIDS   CLEAR     84  81  90 CALM      29.98R HX  99
CHARLES CITY * MOCLDY    82  82 100 SE5       29.99S HX  97
CLINTON *      MOCLDY    82  78  88 CALM      29.99S HX  91
DECORAH *      PTCLDY    82  79  89 CALM      29.98F HX  93
DUBUQUE        CLOUDY    82  78  88 CALM      30.00S HX  91
MONTICELLO *   CLOUDY    84  79  84 S3        29.99R HX  96
OELWEIN *      CLOUDY    82  79  89 SE6       29.99F HX  93
WATERLOO       PTCLDY    85  76  74 S6        29.96S HX  94
$$

IAZ064-065-067-068-078-230200-
   EAST CENTRAL IOWA

CITY           SKY/WX    TMP DP  RH WIND       PRES   REMARKS
DAVENPORT      CLEAR     82  77  84 CALM      29.99S HX  90
IOWA CITY      CLEAR     84  78  82 SE8       29.99R HX  95
MT. PLEASANT * PTCLDY    86  81  85 SE5       29.98S HX 102
MUSCATINE *    CLEAR     86  77  74 S5        29.98S HX  97
QUAD CITIES    MOCLDY    85  77  77 SW3       29.98R HX  95
$$

IAZ062-063-075>077-085>089-095>099-230200-
   SOUTHEAST IOWA

CITY           SKY/WX    TMP DP  RH WIND       PRES   REMARKS
BURLINGTON     CLEAR     83  79  88 S3        29.99R HX  94
FAIRFIELD *    MOCLDY    86  79  79 CALM      29.98S HX  99
KEOKUK *       PTCLDY    86  77  74 CALM      29.98S HX  97
CENTERVILLE *    N/A     82  77  83 CALM      30.00S HX  91
OTTUMWA        PTCLDY    83  76  79 SE6       29.95F HX  91
WASHINGTON *   CLEAR     82  81  94 SE5       29.99S HX  95
$$

ABBREVIATIONS USED IN REMARKS
   TC - TEMPERATURES IN CELSIUS
  WCI - WIND CHILL INDEX
   HX - HEAT INDEX
  VSB - VISIBILITY
$$





USA.gov is the U.S. government's official web portal to all federal, state and local government web resources and services.